RYR34EJ LATI-LFOB

Flight info

Callsign RYR34EJ
Flight time 2h 40m
Altitude 34000
Route DIRES2R DIRES DCT EBELA DCT KOFER DCT EDUGI DCT BOA DCT BETMU DCT OSBUL DCT AOSTA DCT ORSUD DCT MOLUS DCT UNKIR DCT GIVRI DCT TINIL TINIL1B
Aircraft B738/M-SDE2E3FGHIRWXY/LB1

Departure

Time 2026-05-08 10:43
Airport Tirana International Airport Mother Teresa (LATI)

Arrival

Time 2026-05-08 13:23
Airport Beauvais-Tillé airport (LFOB)
Time Latitude Longitude Altitude Speed Heading
2026-05-08 10:24 41.42027 19.71502 121 ft 0 kts 264°
2026-05-08 10:35 41.42029 19.71526 120 ft 2 kts 264°
2026-05-08 10:35 41.42028 19.71557 121 ft 4 kts 306°
2026-05-08 10:36 41.42008 19.71572 121 ft 4 kts 353°
2026-05-08 10:36 41.41996 19.71574 122 ft 1 kts 354°
2026-05-08 10:39 41.42000 19.71574 122 ft 2 kts 354°
2026-05-08 10:39 41.42030 19.71570 121 ft 7 kts 354°
2026-05-08 10:39 41.42098 19.71560 118 ft 13 kts 354°
2026-05-08 10:39 41.42204 19.71545 118 ft 18 kts 354°
2026-05-08 10:40 41.42340 19.71526 115 ft 22 kts 354°
2026-05-08 10:40 41.42498 19.71505 118 ft 22 kts 354°
2026-05-08 10:40 41.42627 19.71489 114 ft 14 kts
2026-05-08 10:40 41.42667 19.71588 116 ft 13 kts 84°
2026-05-08 10:41 41.42676 19.71706 116 ft 13 kts 84°
2026-05-08 10:41 41.42685 19.71822 116 ft 12 kts 84°
2026-05-08 10:41 41.42675 19.71891 117 ft 12 kts 141°
2026-05-08 10:41 41.42635 19.71901 117 ft 0 kts 172°
2026-05-08 10:42 41.42628 19.71903 118 ft 2 kts 172°
2026-05-08 10:42 41.42567 19.71913 116 ft 30 kts 174°
2026-05-08 10:42 41.42135 19.71971 117 ft 93 kts 174°
2026-05-08 10:42 41.41306 19.72084 126 ft 144 kts 174°
2026-05-08 10:43 41.40261 19.72252 563 ft 150 kts 172°
2026-05-08 10:43 41.39211 19.72465 1152 ft 156 kts 170°
2026-05-08 10:43 41.38114 19.72696 1695 ft 164 kts 172°
2026-05-08 10:43 41.36916 19.72895 2268 ft 181 kts 173°
2026-05-08 10:44 41.35557 19.73033 2607 ft 212 kts 175°
2026-05-08 10:44 41.34002 19.73166 2916 ft 232 kts 175°
2026-05-08 10:44 41.32330 19.73327 3356 ft 254 kts 175°
2026-05-08 10:44 41.30537 19.73528 4106 ft 260 kts 175°
2026-05-08 10:45 41.28735 19.73761 5083 ft 261 kts 174°
2026-05-08 10:45 41.26911 19.73991 5949 ft 266 kts 176°
2026-05-08 10:45 41.25094 19.73618 6799 ft 269 kts 204°
2026-05-08 10:45 41.23610 19.72104 7630 ft 274 kts 228°
2026-05-08 10:46 41.22574 19.69953 8408 ft 280 kts 242°
2026-05-08 10:46 41.21760 19.67575 9201 ft 285 kts 245°
2026-05-08 10:46 41.20988 19.65134 10030 ft 288 kts 246°
2026-05-08 10:46 41.20205 19.62643 10600 ft 302 kts 245°
2026-05-08 10:47 41.19351 19.59967 10805 ft 326 kts 245°
2026-05-08 10:47 41.18438 19.57148 11350 ft 336 kts 245°
2026-05-08 10:47 41.17501 19.54289 12110 ft 339 kts 244°
2026-05-08 10:47 41.16554 19.51420 12911 ft 340 kts 244°
2026-05-08 10:48 41.15600 19.48545 13702 ft 341 kts 244°
2026-05-08 10:48 41.14641 19.45662 14469 ft 343 kts 244°
2026-05-08 10:48 41.13670 19.42754 15178 ft 346 kts 244°
2026-05-08 10:48 41.12695 19.39837 15940 ft 347 kts 244°
2026-05-08 10:49 41.11713 19.36904 16624 ft 349 kts 244°
2026-05-08 10:49 41.10724 19.33952 17274 ft 352 kts 244°
2026-05-08 10:49 41.09730 19.30986 17956 ft 353 kts 244°
2026-05-08 10:49 41.08730 19.28009 18602 ft 355 kts 244°
2026-05-08 10:50 41.07721 19.25011 19191 ft 358 kts 244°
2026-05-08 10:50 41.06928 19.21863 19700 ft 366 kts 259°
2026-05-08 10:50 41.06960 19.18462 20252 ft 374 kts 276°
2026-05-08 10:50 41.07731 19.15139 20782 ft 385 kts 293°
2026-05-08 10:51 41.09105 19.12073 21323 ft 390 kts 298°
2026-05-08 10:51 41.10570 19.09083 21823 ft 393 kts 299°
2026-05-08 10:51 41.12075 19.06036 22309 ft 396 kts 299°
2026-05-08 10:51 41.13574 19.02959 22794 ft 399 kts 299°
2026-05-08 10:52 41.15084 18.99807 23264 ft 401 kts 298°
2026-05-08 10:52 41.16557 18.96704 23709 ft 404 kts 298°
2026-05-08 10:52 41.18196 18.93596 24142 ft 411 kts 309°
2026-05-08 10:52 41.20373 18.91164 24554 ft 421 kts 324°
2026-05-08 10:53 41.23038 18.89488 24974 ft 430 kts 340°
2026-05-08 10:53 41.25952 18.88477 25391 ft 434 kts 343°
2026-05-08 10:53 41.28899 18.87551 25778 ft 437 kts 343°
2026-05-08 10:53 41.31871 18.86632 26147 ft 440 kts 343°
2026-05-08 10:54 41.34857 18.85697 26519 ft 442 kts 343°
2026-05-08 10:54 41.37856 18.84737 26886 ft 444 kts 343°
2026-05-08 10:54 41.40908 18.83742 27252 ft 446 kts 343°
2026-05-08 10:54 41.43886 18.82759 27602 ft 448 kts 343°
2026-05-08 10:55 41.46919 18.81751 27935 ft 450 kts 343°
2026-05-08 10:55 41.49968 18.80735 28238 ft 453 kts 343°
2026-05-08 10:55 41.53027 18.79713 28559 ft 455 kts 343°
2026-05-08 10:55 41.56102 18.78686 28885 ft 456 kts 343°
2026-05-08 10:56 41.59186 18.77655 29209 ft 458 kts 343°
2026-05-08 10:56 41.62276 18.76623 29616 ft 456 kts 343°
2026-05-08 10:56 41.65349 18.75596 30059 ft 454 kts 343°
2026-05-08 10:56 41.68412 18.74571 30471 ft 453 kts 343°
2026-05-08 10:57 41.71462 18.73549 30866 ft 451 kts 343°
2026-05-08 10:57 41.74507 18.72529 31255 ft 450 kts 343°
2026-05-08 10:57 41.80568 18.70491 32029 ft 447 kts 343°
2026-05-08 10:58 41.83579 18.69477 32416 ft 445 kts 343°
2026-05-08 10:58 41.86578 18.68467 32747 ft 444 kts 343°
2026-05-08 10:58 41.89551 18.67358 33038 ft 442 kts 336°
2026-05-08 10:58 41.92221 18.65391 33347 ft 436 kts 320°
2026-05-08 10:59 41.94400 18.62623 33699 ft 429 kts 307°
2026-05-08 10:59 41.96058 18.59318 33994 ft 426 kts 299°
2026-05-08 10:59 41.99086 18.52388 34037 ft 433 kts 298°
2026-05-08 11:00 42.02109 18.45401 34028 ft 430 kts 299°
2026-05-08 11:00 42.05131 18.38512 34048 ft 427 kts 299°
2026-05-08 11:01 42.08168 18.31635 34046 ft 428 kts 300°
2026-05-08 11:01 42.11214 18.24749 34048 ft 428 kts 300°
2026-05-08 11:02 42.15781 18.14385 34045 ft 429 kts 300°
2026-05-08 11:03 42.18826 18.07455 34044 ft 430 kts 300°
2026-05-08 11:03 42.21865 18.00516 34037 ft 430 kts 299°
2026-05-08 11:04 42.24885 17.93612 34044 ft 430 kts 299°
2026-05-08 11:04 42.27923 17.86648 34035 ft 430 kts 299°
2026-05-08 11:05 42.30956 17.79679 34045 ft 430 kts 299°
2026-05-08 11:05 42.33985 17.72700 34041 ft 431 kts 299°
2026-05-08 11:06 42.37014 17.65708 34041 ft 431 kts 299°
2026-05-08 11:06 42.40037 17.58712 34033 ft 430 kts 298°
2026-05-08 11:07 42.43051 17.51718 34048 ft 430 kts 298°
2026-05-08 11:07 42.46061 17.44724 34033 ft 430 kts 298°
2026-05-08 11:08 42.49064 17.37723 34028 ft 430 kts 298°
2026-05-08 11:08 42.52061 17.30722 34035 ft 429 kts 298°
2026-05-08 11:09 42.55056 17.23715 34029 ft 429 kts 298°
2026-05-08 11:09 42.58040 17.16707 34026 ft 429 kts 297°
2026-05-08 11:10 42.61000 17.09740 34030 ft 429 kts 297°
2026-05-08 11:10 42.63976 17.02717 34023 ft 429 kts 297°
2026-05-08 11:11 42.66947 16.95695 34028 ft 429 kts 297°
2026-05-08 11:11 42.69931 16.88623 34032 ft 429 kts 297°
2026-05-08 11:12 42.72872 16.81637 34028 ft 429 kts 297°
2026-05-08 11:12 42.75829 16.74589 34025 ft 429 kts 297°
2026-05-08 11:13 42.78785 16.67533 34021 ft 429 kts 297°
2026-05-08 11:13 42.81739 16.60466 34015 ft 430 kts 297°
2026-05-08 11:14 42.84691 16.53386 34022 ft 430 kts 297°
2026-05-08 11:14 42.87637 16.46297 34017 ft 430 kts 296°
2026-05-08 11:15 42.90584 16.39195 34011 ft 430 kts 296°
2026-05-08 11:15 42.93530 16.32083 34011 ft 430 kts 296°
2026-05-08 11:16 42.96468 16.24964 34011 ft 431 kts 296°
2026-05-08 11:16 42.99406 16.17833 34017 ft 430 kts 296°
2026-05-08 11:17 43.02336 16.10702 34022 ft 430 kts 296°
2026-05-08 11:17 43.05258 16.03565 34014 ft 430 kts 296°
2026-05-08 11:18 43.08154 15.96484 34021 ft 429 kts 296°
2026-05-08 11:18 43.11059 15.89359 34023 ft 428 kts 296°
2026-05-08 11:19 43.13953 15.82238 34021 ft 428 kts 295°
2026-05-08 11:19 43.16838 15.75130 34014 ft 427 kts 295°
2026-05-08 11:20 43.19712 15.68029 34016 ft 425 kts 295°
2026-05-08 11:20 43.22575 15.60941 34022 ft 424 kts 295°
2026-05-08 11:21 43.25427 15.53860 34016 ft 424 kts 295°
2026-05-08 11:21 43.28268 15.46787 34018 ft 423 kts 295°
2026-05-08 11:22 43.31105 15.39706 34018 ft 423 kts 295°
2026-05-08 11:22 43.33936 15.32624 34016 ft 423 kts 295°
2026-05-08 11:23 43.36765 15.25535 34027 ft 423 kts 295°
2026-05-08 11:23 43.39588 15.18438 34023 ft 423 kts 295°
2026-05-08 11:24 43.42407 15.11333 34025 ft 423 kts 295°
2026-05-08 11:24 43.45223 15.04218 34028 ft 424 kts 295°
2026-05-08 11:25 43.48038 14.97087 34030 ft 424 kts 295°
2026-05-08 11:25 43.50851 14.89947 34029 ft 424 kts 295°
2026-05-08 11:26 43.53658 14.82800 34030 ft 424 kts 295°
2026-05-08 11:26 43.56461 14.75650 34030 ft 424 kts 295°
2026-05-08 11:27 43.59263 14.68494 34026 ft 424 kts 294°
2026-05-08 11:27 43.62052 14.61337 34032 ft 423 kts 294°
2026-05-08 11:28 43.64364 14.55390 34023 ft 423 kts 294°
2026-05-08 11:28 43.67608 14.47022 34034 ft 423 kts 294°
2026-05-08 11:29 43.69910 14.41077 34031 ft 422 kts 294°
2026-05-08 11:29 43.72672 14.33922 34027 ft 421 kts 294°
2026-05-08 11:30 43.75423 14.26779 34033 ft 420 kts 294°
2026-05-08 11:30 43.78175 14.19679 34036 ft 418 kts 294°
2026-05-08 11:31 43.80556 14.12392 34049 ft 414 kts 287°
2026-05-08 11:31 43.82556 14.04912 34042 ft 414 kts 286°
2026-05-08 11:32 43.84545 13.97419 34022 ft 415 kts 287°
2026-05-08 11:32 43.86560 13.89928 34028 ft 415 kts 287°
2026-05-08 11:33 43.88590 13.82430 34048 ft 415 kts 287°
2026-05-08 11:33 43.90620 13.74927 34048 ft 416 kts 287°
2026-05-08 11:34 43.92634 13.67465 34048 ft 416 kts 287°
2026-05-08 11:34 43.94657 13.59942 34045 ft 416 kts 287°
2026-05-08 11:35 43.96676 13.52410 34044 ft 417 kts 287°
2026-05-08 11:35 43.98693 13.44865 34046 ft 417 kts 287°
2026-05-08 11:36 44.00706 13.37308 34049 ft 417 kts 286°
2026-05-08 11:36 44.02715 13.29742 34034 ft 417 kts 286°
2026-05-08 11:37 44.04714 13.22193 34054 ft 416 kts 286°
2026-05-08 11:37 44.06705 13.14650 34054 ft 415 kts 286°
2026-05-08 11:38 44.08682 13.07131 34054 ft 413 kts 286°
2026-05-08 11:38 44.10648 12.99635 34056 ft 412 kts 285°
2026-05-08 11:39 44.12603 12.92159 34054 ft 411 kts 285°
2026-05-08 11:39 44.14550 12.84686 34055 ft 410 kts 285°
2026-05-08 11:40 44.16491 12.77215 34056 ft 410 kts 285°
2026-05-08 11:40 44.18425 12.69732 34054 ft 411 kts 285°
2026-05-08 11:41 44.20362 12.62231 34056 ft 411 kts 285°
2026-05-08 11:41 44.22295 12.54719 34061 ft 412 kts 285°
2026-05-08 11:42 44.24212 12.47242 34065 ft 413 kts 285°
2026-05-08 11:42 44.26146 12.39683 34066 ft 414 kts 285°
2026-05-08 11:43 44.28076 12.32102 34074 ft 415 kts 285°
2026-05-08 11:43 44.30005 12.24502 34074 ft 416 kts 285°
2026-05-08 11:44 44.31934 12.16887 34064 ft 416 kts 285°
2026-05-08 11:44 44.33858 12.09260 34060 ft 417 kts 285°
2026-05-08 11:45 44.35781 12.01613 34053 ft 417 kts 285°
2026-05-08 11:45 44.37700 11.93957 34048 ft 417 kts 285°
2026-05-08 11:46 44.39612 11.86303 34047 ft 417 kts 285°
2026-05-08 11:46 44.41517 11.78656 34047 ft 416 kts 284°
2026-05-08 11:47 44.43414 11.71011 34046 ft 415 kts 284°
2026-05-08 11:47 44.45300 11.63382 34047 ft 415 kts 284°
2026-05-08 11:48 44.47177 11.55765 34046 ft 413 kts 284°
2026-05-08 11:48 44.49044 11.48164 34045 ft 412 kts 284°
2026-05-08 11:49 44.50891 11.40622 34046 ft 412 kts 284°
2026-05-08 11:49 44.52743 11.33041 34037 ft 411 kts 284°
2026-05-08 11:50 44.54679 11.25490 34050 ft 412 kts 287°
2026-05-08 11:50 44.56873 11.18058 34048 ft 412 kts 288°
2026-05-08 11:51 44.59076 11.10638 34053 ft 412 kts 287°
2026-05-08 11:51 44.61244 11.03206 34062 ft 412 kts 287°
2026-05-08 11:52 44.63400 10.95756 34069 ft 412 kts 287°
2026-05-08 11:52 44.65548 10.88300 34074 ft 412 kts 287°
2026-05-08 11:53 44.67691 10.80843 34082 ft 412 kts 286°
2026-05-08 11:53 44.69816 10.73368 34085 ft 412 kts 286°
2026-05-08 11:54 44.71932 10.65883 34085 ft 412 kts 286°
2026-05-08 11:54 44.74045 10.58396 34085 ft 412 kts 286°
2026-05-08 11:55 44.76142 10.50949 34083 ft 412 kts 286°
2026-05-08 11:55 44.78247 10.43448 34077 ft 412 kts 286°
2026-05-08 11:56 44.80346 10.35949 34075 ft 412 kts 285°
2026-05-08 11:56 44.82465 10.28454 34073 ft 413 kts 288°
2026-05-08 11:57 44.84951 10.21122 34079 ft 415 kts 290°
2026-05-08 11:57 44.87535 10.13842 34072 ft 415 kts 290°
2026-05-08 11:58 44.90100 10.06552 34076 ft 415 kts 290°
2026-05-08 11:58 44.92645 9.99236 34066 ft 415 kts 290°
2026-05-08 11:59 44.96428 9.88257 34057 ft 414 kts 289°
2026-05-08 11:59 44.98938 9.80945 34056 ft 414 kts 289°
2026-05-08 12:00 45.01444 9.73630 34056 ft 413 kts 289°
2026-05-08 12:00 45.03944 9.66319 34055 ft 413 kts 289°
2026-05-08 12:01 45.06435 9.59002 34057 ft 412 kts 289°
2026-05-08 12:01 45.08916 9.51699 34053 ft 411 kts 289°
2026-05-08 12:02 45.11387 9.44403 34056 ft 411 kts 289°
2026-05-08 12:02 45.13851 9.37106 34054 ft 410 kts 289°
2026-05-08 12:03 45.16292 9.29867 34065 ft 410 kts 290°
2026-05-08 12:03 45.18743 9.22573 34068 ft 410 kts 290°
2026-05-08 12:04 45.21188 9.15277 34066 ft 410 kts 290°
2026-05-08 12:04 45.23632 9.07962 34066 ft 410 kts 290°
2026-05-08 12:05 45.26071 9.00640 34071 ft 410 kts 290°
2026-05-08 12:05 45.28507 8.93308 34073 ft 411 kts 290°
2026-05-08 12:06 45.30941 8.85964 34074 ft 411 kts 290°
2026-05-08 12:06 45.33369 8.78616 34074 ft 411 kts 290°
2026-05-08 12:07 45.35790 8.71268 34077 ft 410 kts 290°
2026-05-08 12:07 45.38205 8.63919 34074 ft 410 kts 290°
2026-05-08 12:08 45.40613 8.56571 34071 ft 409 kts 290°
2026-05-08 12:08 45.43014 8.49225 34076 ft 409 kts 289°
2026-05-08 12:09 45.45408 8.41879 34075 ft 409 kts 289°
2026-05-08 12:09 45.47799 8.34518 34071 ft 410 kts 289°
2026-05-08 12:10 45.50186 8.27150 34085 ft 410 kts 289°
2026-05-08 12:10 45.52570 8.19772 34081 ft 410 kts 289°
2026-05-08 12:11 45.54951 8.12384 34084 ft 410 kts 289°
2026-05-08 12:11 45.57327 8.04987 34088 ft 411 kts 289°
2026-05-08 12:12 45.59706 7.97564 34083 ft 411 kts 289°
2026-05-08 12:12 45.62081 7.90128 34084 ft 412 kts 289°
2026-05-08 12:13 45.64455 7.82671 34081 ft 412 kts 289°
2026-05-08 12:13 45.66825 7.75205 34085 ft 412 kts 289°
2026-05-08 12:14 45.69189 7.67740 34087 ft 412 kts 289°
2026-05-08 12:14 45.71526 7.60337 34077 ft 410 kts 289°
2026-05-08 12:15 45.73862 7.52924 34086 ft 408 kts 289°
2026-05-08 12:15 45.76185 7.45525 34081 ft 407 kts 289°
2026-05-08 12:16 45.78582 7.38175 34067 ft 411 kts 296°
2026-05-08 12:16 45.82280 7.31846 34075 ft 421 kts 314°
2026-05-08 12:17 45.87062 7.26921 34067 ft 423 kts 321°
2026-05-08 12:17 45.91907 7.22153 34057 ft 422 kts 320°
2026-05-08 12:18 45.96697 7.17299 34057 ft 420 kts 319°
2026-05-08 12:18 46.00647 7.13250 34059 ft 419 kts 320°
2026-05-08 12:19 46.05391 7.08369 34031 ft 419 kts 320°
2026-05-08 12:19 46.10152 7.03467 34019 ft 421 kts 320°
2026-05-08 12:20 46.14923 6.98544 34024 ft 423 kts 320°
2026-05-08 12:20 46.19698 6.93615 34016 ft 420 kts 320°
2026-05-08 12:21 46.24458 6.88682 34003 ft 422 kts 320°
2026-05-08 12:21 46.29233 6.83719 34012 ft 423 kts 320°
2026-05-08 12:22 46.34019 6.78736 34012 ft 425 kts 320°
2026-05-08 12:22 46.38809 6.73748 34012 ft 423 kts 320°
2026-05-08 12:23 46.43447 6.68564 34016 ft 417 kts 311°
2026-05-08 12:23 46.46880 6.61955 34038 ft 408 kts 297°
2026-05-08 12:24 46.49673 6.54807 34027 ft 406 kts 296°
2026-05-08 12:24 46.52436 6.47671 34021 ft 405 kts 297°
2026-05-08 12:25 46.55216 6.40566 34030 ft 404 kts 297°
2026-05-08 12:25 46.58001 6.33476 34027 ft 404 kts 297°
2026-05-08 12:26 46.60782 6.26389 34037 ft 404 kts 297°
2026-05-08 12:26 46.63562 6.19282 34030 ft 404 kts 297°
2026-05-08 12:27 46.66321 6.12209 34027 ft 405 kts 297°
2026-05-08 12:27 46.69099 6.05066 34031 ft 406 kts 297°
2026-05-08 12:28 46.71879 5.97905 34024 ft 406 kts 297°
2026-05-08 12:28 46.74654 5.90732 34027 ft 406 kts 297°
2026-05-08 12:29 46.77428 5.83554 34025 ft 406 kts 297°
2026-05-08 12:29 46.80262 5.76433 34019 ft 407 kts 304°
2026-05-08 12:30 46.84277 5.70597 34026 ft 411 kts 321°
2026-05-08 12:30 46.89253 5.66401 34022 ft 414 kts 328°
2026-05-08 12:31 46.94331 5.62422 34017 ft 413 kts 328°
2026-05-08 12:31 46.99370 5.58413 34018 ft 412 kts 328°
2026-05-08 12:32 47.04392 5.54366 34023 ft 412 kts 328°
2026-05-08 12:32 47.09383 5.50327 34002 ft 403 kts 327°
2026-05-08 12:33 47.11825 5.48350 33732 ft 398 kts 328°
2026-05-08 12:33 47.14225 5.46401 33456 ft 391 kts 327°
2026-05-08 12:33 47.16600 5.44472 33079 ft 389 kts 327°
2026-05-08 12:33 47.18955 5.42557 32705 ft 386 kts 327°
2026-05-08 12:34 47.21296 5.40651 32356 ft 383 kts 327°
2026-05-08 12:34 47.23592 5.38780 31993 ft 381 kts 327°
2026-05-08 12:34 47.25902 5.36898 31629 ft 379 kts 327°
2026-05-08 12:34 47.28198 5.35023 31261 ft 376 kts 327°
2026-05-08 12:35 47.30485 5.33155 30815 ft 377 kts 327°
2026-05-08 12:35 47.32780 5.31283 30393 ft 376 kts 327°
2026-05-08 12:35 47.35068 5.29417 29991 ft 375 kts 327°
2026-05-08 12:35 47.37344 5.27559 29634 ft 372 kts 327°
2026-05-08 12:36 47.39601 5.25712 29270 ft 370 kts 327°
2026-05-08 12:36 47.41847 5.23875 28887 ft 368 kts 327°
2026-05-08 12:36 47.44077 5.22048 28524 ft 365 kts 327°
2026-05-08 12:36 47.46291 5.20232 28159 ft 363 kts 327°
2026-05-08 12:37 47.48494 5.18424 27798 ft 361 kts 327°
2026-05-08 12:37 47.50682 5.16626 27434 ft 359 kts 327°
2026-05-08 12:37 47.52855 5.14838 27075 ft 356 kts 327°
2026-05-08 12:37 47.55013 5.13061 26723 ft 354 kts 327°
2026-05-08 12:38 47.57160 5.11290 26367 ft 352 kts 327°
2026-05-08 12:38 47.59279 5.09489 26007 ft 349 kts 322°
2026-05-08 12:38 47.61201 5.07314 25578 ft 347 kts 315°
2026-05-08 12:38 47.63009 5.04966 25218 ft 344 kts 314°
2026-05-08 12:39 47.64794 5.02610 24864 ft 343 kts 314°
2026-05-08 12:39 47.66582 5.00281 24516 ft 342 kts 315°
2026-05-08 12:39 47.68378 4.97981 24155 ft 341 kts 315°
2026-05-08 12:39 47.70179 4.95706 23811 ft 339 kts 316°
2026-05-08 12:40 47.71972 4.93449 23465 ft 337 kts 315°
2026-05-08 12:40 47.73757 4.91202 23122 ft 335 kts 316°
2026-05-08 12:40 47.75534 4.88964 22750 ft 335 kts 316°
2026-05-08 12:40 47.77303 4.86733 22412 ft 333 kts 316°
2026-05-08 12:41 47.79064 4.84510 22078 ft 331 kts 316°
2026-05-08 12:41 47.80818 4.82293 21736 ft 330 kts 316°
2026-05-08 12:41 47.82563 4.80086 21402 ft 328 kts 316°
2026-05-08 12:41 47.84298 4.77887 21069 ft 327 kts 316°
2026-05-08 12:42 47.86023 4.75700 20744 ft 325 kts 316°
2026-05-08 12:42 47.87740 4.73521 20412 ft 323 kts 316°
2026-05-08 12:42 47.89446 4.71356 20085 ft 321 kts 316°
2026-05-08 12:42 47.91142 4.69202 19766 ft 319 kts 316°
2026-05-08 12:43 47.92827 4.67059 19437 ft 318 kts 316°
2026-05-08 12:43 47.94504 4.64923 19118 ft 316 kts 316°
2026-05-08 12:43 47.96171 4.62799 18792 ft 315 kts 316°
2026-05-08 12:43 47.97828 4.60683 18475 ft 313 kts 316°
2026-05-08 12:44 47.99477 4.58577 18155 ft 311 kts 316°
2026-05-08 12:44 48.01118 4.56480 17835 ft 310 kts 316°
2026-05-08 12:44 48.02750 4.54393 17521 ft 308 kts 316°
2026-05-08 12:44 48.04375 4.52313 17201 ft 307 kts 316°
2026-05-08 12:45 48.05993 4.50241 16896 ft 305 kts 316°
2026-05-08 12:45 48.07602 4.48179 16591 ft 304 kts 316°
2026-05-08 12:45 48.09205 4.46123 16267 ft 303 kts 316°
2026-05-08 12:45 48.10803 4.44069 15955 ft 303 kts 316°
2026-05-08 12:46 48.12374 4.42048 15646 ft 301 kts 316°
2026-05-08 12:46 48.14002 4.40085 15329 ft 302 kts 324°
2026-05-08 12:46 48.15822 4.38520 15025 ft 302 kts 330°
2026-05-08 12:46 48.17691 4.37096 14715 ft 301 kts 331°
2026-05-08 12:47 48.19556 4.35691 14406 ft 300 kts 330°
2026-05-08 12:47 48.21405 4.34273 14109 ft 298 kts 330°
2026-05-08 12:47 48.23238 4.32845 13788 ft 296 kts 330°
2026-05-08 12:47 48.25057 4.31411 13483 ft 295 kts 330°
2026-05-08 12:48 48.26867 4.29973 13181 ft 293 kts 330°
2026-05-08 12:48 48.28660 4.28545 12903 ft 291 kts 330°
2026-05-08 12:48 48.30447 4.27117 12583 ft 291 kts 330°
2026-05-08 12:48 48.32231 4.25688 12283 ft 290 kts 330°
2026-05-08 12:49 48.34004 4.24265 12002 ft 288 kts 330°
2026-05-08 12:49 48.35767 4.22831 11788 ft 289 kts 330°
2026-05-08 12:49 48.37543 4.21372 11539 ft 292 kts 330°
2026-05-08 12:49 48.39332 4.19903 11304 ft 294 kts 330°
2026-05-08 12:50 48.41135 4.18420 11070 ft 296 kts 330°
2026-05-08 12:50 48.42942 4.16934 10843 ft 296 kts 330°
2026-05-08 12:50 48.44754 4.15443 10585 ft 296 kts 330°
2026-05-08 12:50 48.46552 4.13963 10331 ft 293 kts 330°
2026-05-08 12:51 48.48326 4.12500 10097 ft 289 kts 330°
2026-05-08 12:51 48.51794 4.09644 9634 ft 280 kts 330°
2026-05-08 12:51 48.53501 4.08234 9407 ft 279 kts 330°
2026-05-08 12:52 48.55202 4.06829 9192 ft 279 kts 330°
2026-05-08 12:52 48.58610 4.04009 8750 ft 279 kts 330°
2026-05-08 12:52 48.60312 4.02599 8524 ft 279 kts 330°
2026-05-08 12:53 48.62009 4.01190 8302 ft 279 kts 330°
2026-05-08 12:53 48.63707 3.99778 8078 ft 278 kts 330°
2026-05-08 12:53 48.65398 3.98373 7850 ft 277 kts 331°
2026-05-08 12:53 48.67083 3.96973 7632 ft 276 kts 331°
2026-05-08 12:54 48.68759 3.95578 7403 ft 274 kts 331°
2026-05-08 12:54 48.70429 3.94186 7180 ft 273 kts 331°
2026-05-08 12:54 48.72081 3.92814 7045 ft 267 kts 331°
2026-05-08 12:54 48.73689 3.91471 6990 ft 263 kts 331°
2026-05-08 12:55 48.75289 3.90137 6957 ft 264 kts 331°
2026-05-08 12:55 48.76914 3.88783 6924 ft 268 kts 331°
2026-05-08 12:55 48.78535 3.87429 6876 ft 271 kts 331°
2026-05-08 12:55 48.80238 3.86131 6834 ft 270 kts 336°
2026-05-08 12:56 48.81957 3.84998 6782 ft 270 kts 337°
2026-05-08 12:56 48.83658 3.83896 6717 ft 269 kts 337°
2026-05-08 12:56 48.85376 3.82785 6692 ft 268 kts 337°
2026-05-08 12:56 48.87089 3.81675 6653 ft 268 kts 337°
2026-05-08 12:57 48.88799 3.80562 6604 ft 267 kts 337°
2026-05-08 12:57 48.90504 3.79446 6578 ft 266 kts 336°
2026-05-08 12:57 48.92204 3.78328 6527 ft 266 kts 336°
2026-05-08 12:57 48.93933 3.77191 6474 ft 267 kts 336°
2026-05-08 12:58 48.95615 3.76083 6440 ft 267 kts 336°
2026-05-08 12:58 48.97340 3.74941 6409 ft 267 kts 336°
2026-05-08 12:58 48.99014 3.73836 6355 ft 265 kts 336°
2026-05-08 12:58 49.00707 3.72713 6309 ft 266 kts 336°
2026-05-08 12:59 49.02404 3.71589 6273 ft 266 kts 336°
2026-05-08 12:59 49.04124 3.70446 6237 ft 266 kts 336°
2026-05-08 12:59 49.05797 3.69335 6190 ft 266 kts 336°
2026-05-08 12:59 49.07497 3.68207 6140 ft 266 kts 336°
2026-05-08 13:00 49.09196 3.67075 6099 ft 267 kts 336°
2026-05-08 13:00 49.10767 3.65603 6051 ft 267 kts 313°
2026-05-08 13:00 49.11859 3.63330 6035 ft 266 kts 303°
2026-05-08 13:00 49.12881 3.60967 5977 ft 267 kts 303°
2026-05-08 13:01 49.13897 3.58585 5936 ft 267 kts 303°
2026-05-08 13:01 49.14919 3.56218 5908 ft 266 kts 303°
2026-05-08 13:01 49.15937 3.53853 5870 ft 266 kts 303°
2026-05-08 13:01 49.16951 3.51482 5814 ft 266 kts 303°
2026-05-08 13:02 49.17962 3.49118 5770 ft 265 kts 303°
2026-05-08 13:02 49.18974 3.46764 5732 ft 264 kts 303°
2026-05-08 13:02 49.19984 3.44415 5669 ft 265 kts 303°
2026-05-08 13:02 49.21004 3.42047 5598 ft 266 kts 303°
2026-05-08 13:03 49.22021 3.39683 5540 ft 266 kts 303°
2026-05-08 13:03 49.23035 3.37323 5509 ft 265 kts 303°
2026-05-08 13:03 49.24047 3.34970 5447 ft 265 kts 303°
2026-05-08 13:03 49.25054 3.32610 5394 ft 265 kts 303°
2026-05-08 13:04 49.26066 3.30255 5354 ft 264 kts 303°
2026-05-08 13:04 49.27074 3.27910 5313 ft 263 kts 303°
2026-05-08 13:04 49.28077 3.25573 5278 ft 262 kts 303°
2026-05-08 13:04 49.29065 3.23268 5234 ft 262 kts 303°
2026-05-08 13:05 49.30076 3.20904 5198 ft 262 kts 303°
2026-05-08 13:05 49.31073 3.18570 5163 ft 262 kts 303°
2026-05-08 13:05 49.32072 3.16232 5121 ft 262 kts 303°
2026-05-08 13:05 49.33070 3.13895 5049 ft 262 kts 303°
2026-05-08 13:06 49.33730 3.12347 5035 ft 262 kts 303°
2026-05-08 13:06 49.34727 3.10009 5006 ft 262 kts 303°
2026-05-08 13:06 49.35712 3.07663 4956 ft 261 kts 301°
2026-05-08 13:06 49.36585 3.05221 4924 ft 261 kts 297°
2026-05-08 13:07 49.37412 3.02740 4880 ft 261 kts 297°
2026-05-08 13:07 49.38232 3.00251 4857 ft 261 kts 297°
2026-05-08 13:07 49.39054 2.97754 4803 ft 262 kts 297°
2026-05-08 13:07 49.39884 2.95257 4744 ft 262 kts 297°
2026-05-08 13:08 49.40713 2.92767 4708 ft 262 kts 297°
2026-05-08 13:08 49.41542 2.90280 4670 ft 261 kts 297°
2026-05-08 13:08 49.42369 2.87799 4632 ft 261 kts 297°
2026-05-08 13:08 49.43197 2.85317 4595 ft 261 kts 297°
2026-05-08 13:09 49.44025 2.82831 4561 ft 262 kts 297°
2026-05-08 13:09 49.44854 2.80342 4518 ft 261 kts 297°
2026-05-08 13:09 49.45681 2.77864 4475 ft 261 kts 297°
2026-05-08 13:09 49.46509 2.75382 4426 ft 261 kts 297°
2026-05-08 13:10 49.47336 2.72902 4395 ft 260 kts 297°
2026-05-08 13:10 49.48160 2.70422 4361 ft 261 kts 297°
2026-05-08 13:10 49.48984 2.67943 4317 ft 260 kts 297°
2026-05-08 13:10 49.49806 2.65460 4256 ft 261 kts 297°
2026-05-08 13:11 49.50629 2.62983 4227 ft 260 kts 297°
2026-05-08 13:11 49.51450 2.60503 4202 ft 259 kts 297°
2026-05-08 13:11 49.52270 2.58025 4151 ft 260 kts 297°
2026-05-08 13:11 49.53088 2.55547 4101 ft 260 kts 297°
2026-05-08 13:12 49.53906 2.53069 4071 ft 260 kts 297°
2026-05-08 13:12 49.54723 2.50594 4041 ft 258 kts 297°
2026-05-08 13:12 49.55396 2.48053 3982 ft 257 kts 282°
2026-05-08 13:12 49.55653 2.45330 3950 ft 257 kts 276°
2026-05-08 13:13 49.55839 2.42591 3914 ft 258 kts 275°
2026-05-08 13:13 49.56015 2.39850 3886 ft 257 kts 275°
2026-05-08 13:13 49.56200 2.37108 3833 ft 258 kts 276°
2026-05-08 13:13 49.56393 2.34358 3782 ft 259 kts 276°
2026-05-08 13:14 49.56586 2.31604 3748 ft 259 kts 276°
2026-05-08 13:14 49.56785 2.28848 3723 ft 258 kts 276°
2026-05-08 13:14 49.56983 2.26095 3665 ft 259 kts 276°
2026-05-08 13:14 49.57182 2.23371 3624 ft 259 kts 276°
2026-05-08 13:15 49.57383 2.20625 3583 ft 258 kts 276°
2026-05-08 13:15 49.57583 2.17878 3561 ft 258 kts 276°
2026-05-08 13:15 49.57782 2.15133 3519 ft 257 kts 276°
2026-05-08 13:15 49.57980 2.12393 3455 ft 257 kts 276°
2026-05-08 13:16 49.58176 2.09661 3427 ft 256 kts 276°
2026-05-08 13:16 49.58373 2.06934 3382 ft 256 kts 276°
2026-05-08 13:16 49.58571 2.04207 3342 ft 256 kts 276°
2026-05-08 13:16 49.58769 2.01482 3299 ft 256 kts 276°
2026-05-08 13:17 49.58965 1.98756 3266 ft 256 kts 276°
2026-05-08 13:17 49.59152 1.96039 3233 ft 254 kts 276°
2026-05-08 13:17 49.59340 1.93389 3164 ft 244 kts 276°
2026-05-08 13:17 49.59516 1.90843 3060 ft 233 kts 273°
2026-05-08 13:18 49.59187 1.88535 2984 ft 214 kts 234°
2026-05-08 13:18 49.58064 1.87327 2971 ft 190 kts 188°
2026-05-08 13:18 49.56885 1.87743 3001 ft 175 kts 143°
2026-05-08 13:18 49.55919 1.88925 2981 ft 178 kts 141°
2026-05-08 13:19 49.55007 1.90176 2976 ft 174 kts 133°
2026-05-08 13:19 49.54227 1.91534 2998 ft 164 kts 130°
2026-05-08 13:19 49.53503 1.92882 2953 ft 163 kts 127°
2026-05-08 13:19 49.52835 1.94293 2795 ft 163 kts 124°
2026-05-08 13:20 49.52195 1.95739 2590 ft 163 kts 123°
2026-05-08 13:20 49.51567 1.97173 2384 ft 160 kts 123°
2026-05-08 13:20 49.50955 1.98581 2167 ft 157 kts 123°
2026-05-08 13:20 49.50353 1.99965 1967 ft 153 kts 123°
2026-05-08 13:21 49.49777 2.01293 1765 ft 147 kts 123°
2026-05-08 13:21 49.49219 2.02578 1565 ft 142 kts 123°
2026-05-08 13:21 49.48674 2.03826 1388 ft 140 kts 124°
2026-05-08 13:21 49.48127 2.05085 1203 ft 142 kts 123°
2026-05-08 13:22 49.47582 2.06346 1010 ft 141 kts 124°
2026-05-08 13:22 49.47034 2.07596 836 ft 141 kts 124°
2026-05-08 13:22 49.46489 2.08865 643 ft 143 kts 121°
2026-05-08 13:22 49.45932 2.10160 446 ft 146 kts 122°
2026-05-08 13:23 49.45381 2.11435 339 ft 136 kts 123°
2026-05-08 13:23 49.44969 2.12368 327 ft 74 kts 123°
2026-05-08 13:23 49.44781 2.12784 316 ft 31 kts 133°
2026-05-08 13:23 49.44765 2.12852 315 ft 6 kts 345°
2026-05-08 13:24 49.44809 2.12741 316 ft 21 kts 302°
2026-05-08 13:24 49.44907 2.12514 323 ft 26 kts 304°
2026-05-08 13:24 49.45006 2.12288 329 ft 24 kts 304°
2026-05-08 13:24 49.45097 2.12078 333 ft 23 kts 303°
2026-05-08 13:25 49.45183 2.11878 336 ft 22 kts 303°
2026-05-08 13:25 49.45272 2.11671 335 ft 25 kts 303°
2026-05-08 13:25 49.45370 2.11444 337 ft 25 kts 303°
2026-05-08 13:25 49.45492 2.11353 339 ft 22 kts 35°
2026-05-08 13:26 49.45609 2.11508 344 ft 22 kts 41°
2026-05-08 13:26 49.45734 2.11594 350 ft 21 kts 329°
2026-05-08 13:26 49.45846 2.11519 346 ft 13 kts 34°
2026-05-08 13:26 49.45888 2.11567 348 ft 6 kts 36°
2026-05-08 13:27 49.45922 2.11574 352 ft 6 kts 328°
2026-05-08 13:27 49.45951 2.11526 350 ft 4 kts 312°
2026-05-08 13:27 49.45957 2.11516 349 ft 0 kts 312°
2026-05-08 13:52 49.45942 2.11541 358 ft 4 kts 311°
2026-05-08 13:52 49.45927 2.11567 359 ft 4 kts 302°
2026-05-08 13:52 49.45920 2.11602 352 ft 4 kts 252°
2026-05-08 13:52 49.45934 2.11633 350 ft 3 kts 221°
2026-05-08 13:53 49.45936 2.11636 350 ft 1 kts 221°
2026-05-08 13:55 49.45871 2.11548 354 ft 15 kts 221°
2026-05-08 13:56 49.45763 2.11559 352 ft 20 kts 133°
2026-05-08 13:56 49.45647 2.11562 347 ft 20 kts 220°
2026-05-08 13:56 49.45562 2.11452 345 ft 7 kts 220°
2026-05-08 13:56 49.45548 2.11434 346 ft 1 kts 220°
2026-05-08 13:57 49.45533 2.11414 341 ft 5 kts 220°
2026-05-08 13:57 49.45493 2.11357 341 ft 11 kts 222°
2026-05-08 13:57 49.45410 2.11361 335 ft 17 kts 131°
2026-05-08 13:57 49.45329 2.11547 332 ft 24 kts 123°
2026-05-08 13:58 49.45227 2.11782 333 ft 28 kts 123°
2026-05-08 13:58 49.45116 2.12037 333 ft 27 kts 124°
2026-05-08 13:58 49.45014 2.12272 329 ft 26 kts 124°
2026-05-08 13:58 49.44918 2.12492 323 ft 24 kts 124°
2026-05-08 13:59 49.44821 2.12715 316 ft 26 kts 123°
2026-05-08 13:59 49.44719 2.12949 311 ft 27 kts 123°
2026-05-08 13:59 49.44668 2.13165 308 ft 11 kts 116°
2026-05-08 13:59 49.44638 2.13135 309 ft 8 kts 290°
2026-05-08 14:00 49.44653 2.13096 309 ft 0 kts 303°
2026-05-08 14:00 49.44662 2.13075 311 ft 1 kts 303°